Regional Weather Roundup
Issued by NWS Sterling, VA

Home | Current Version | Previous Version | Text Only | Print | Product List | Glossary On
Versions: 1 2 3 4 5 6 7 8 9 10 11 12 13 14 15 16 17 18 19 20 21 22 23 24 25 26 27
000
ASUS41 KLWX 172011
RWRLWX

REGIONAL WEATHER ROUNDUP
NATIONAL WEATHER SERVICE BALTIMORE MD/WASHINGTON DC
300 PM EST SUN DEC 17 2017

Note: "FAIR" indicates few or no clouds below 12,000 feet
with no significant weather and/or obstructions to visibility.
 TC=TEMPERATURE CELSIUS

 * =Non NWS site. Station does not report precipitation (e.g. rain,
    snow, etc.), thunder, or fog.

DCZ001-MDZ009-015-VAZ040>042-051-053>054-172100-
WASHINGTON METRO

CITY           SKY/WX    TMP DP  RH WIND       PRES   REMARKS
WASHINGTON NAT CLOUDY    50  32  50 SW3       30.20S
DULLES         CLOUDY    50  27  40 SE3       30.18F
ANDREWS AFB    CLOUDY    49  28  43 S5        30.19R
FT BELVOIR     CLOUDY    46  31  56 CALM      30.19S
QUANTICO       CLOUDY    42  36  79 CALM      30.20F
COLLEGE PARK*  CLOUDY    50  28  43 CALM      30.19R
LEESBURG*      CLOUDY    50  34  53 CALM      30.18F
MANASSAS*      PTSUNNY   47  32  56 CALM      30.18F
GAITHERSBURG*  CLOUDY    49  29  46 S5        30.18F

$$

MDZ006>007-011-014-172100-
BALTIMORE METRO

CITY           SKY/WX    TMP DP  RH WIND       PRES   REMARKS
BWI AIRPORT    CLOUDY    44  33  65 E5        30.19S
MD SCIENCE CTR   N/A     46  30  53 MISG      30.20S
MARTIN STATE   CLOUDY    43  32  65 CALM      30.23S
ANNAPOLIS      MOSUNNY   42  36  79 E6        30.20S
FORT MEADE*    CLOUDY    50  32  50 SE3       30.21S

$$

MDZ012-015-019>023-172100-
MARYLAND EASTERN SHORE

CITY           SKY/WX    TMP DP  RH WIND       PRES   REMARKS
OCEAN CITY     PTSUNNY   45  37  73 SW5       30.22S
SALISBURY      CLOUDY    49  35  58 CALM      30.21S
BAY BRIDGE AP* CLOUDY    45  34  65 S3        30.20F
CAMBRIDGE*     MOSUNNY   46  32  57 SE6       30.21S
EASTON*        CLOUDY    46  32  57 CALM      30.24F

$$

MDZ017>025-172100-
SOUTHERN MARYLAND

CITY           SKY/WX    TMP DP  RH WIND       PRES   REMARKS
PATUXENT RIVER CLOUDY    44  37  76 SE7       30.20S
ST INIGOES     CLOUDY    47  35  63 E3        30.20F
LEONARDTOWN*   CLOUDY    46  30  53 SE3       30.20F

$$

MDZ003>005-172100-
NORTH CENTRAL MARYLAND

CITY           SKY/WX    TMP DP  RH WIND       PRES   REMARKS
FREDERICK*     CLOUDY    48  27  43 SW3       30.20F
HAGERSTOWN APT CLOUDY    46  31  55 SE3       30.15F
WESTMINSTER*   CLOUDY    46  32  57 CALM      30.16F

$$

MDZ501>502-172100-
WESTERN MARYLAND

CITY           SKY/WX    TMP DP  RH WIND       PRES   REMARKS
OAKLAND*       CLOUDY    36  27  69 S5        30.03F
CUMBERLAND*    CLOUDY    37  32  81 CALM      30.18F

$$

VAZ025>031-172100-
SHENANDOAH VALLEY

CITY           SKY/WX    TMP DP  RH WIND       PRES   REMARKS
WINCHESTER*    PTSUNNY   45  28  53 SE3       30.15F
FRONT ROYAL*   CLOUDY    46  28  49 MISG      30.14F
LURAY*         CLOUDY    46  32  57 CALM      30.13F
NEW MARKET*    CLOUDY    45  29  54 CALM      30.13F
STAUNTON*      CLOUDY    46  28  48 S3        30.14F
WAYNESBORO*    CLOUDY    46  28  50 S3        30.12F

$$

WVZ021-048>050-054>055-172100-
EASTERN WEST VIRGINIA PANHANDLE

CITY           SKY/WX    TMP DP  RH WIND       PRES   REMARKS
MARTINSBURG    CLOUDY    47  30  51 E3        30.15F
PETERSBURG*    CLOUDY    42  31  65 CALM      30.12F

$$

VAZ036>039-050-172100-
CENTRAL FOOTHILLS

CITY           SKY/WX    TMP DP  RH WIND       PRES   REMARKS
CHARLOTTESVILL CLOUDY    50  26  39 S5        30.16S
CULPEPER*      FAIR      50  27  41 CALM      30.18S
ORANGE*        CLOUDY    48  28  46 CALM      30.17F
GORDONSVILLE*  CLOUDY    48  31  51 CALM      30.16F
WARRENTON*     CLOUDY    50  24  35 CALM      30.16F

$$

VAZ055>057-172100-
NORTH AND CENTRAL PIEDMONT

CITY           SKY/WX    TMP DP  RH WIND       PRES   REMARKS
FREDERICKSBRG* CLOUDY    48  32  53 E3        30.18F
STAFFORD*      CLOUDY    48  31  50 CALM      30.22S

$$

NCZ024-NYZ072-PAZ021-071-VAZ022-071-172100-
OTHER REGIONAL OBSERVATIONS

CITY           SKY/WX    TMP DP  RH WIND       PRES   REMARKS
NEW YORK CITY  CLOUDY    37  24  59 NE5       30.25S
PHILADELPHIA   CLOUDY    44  28  53 CALM      30.22S
PITTSBURGH     CLOUDY    42  29  59 S5        30.10S
ROANOKE        CLOUDY    46  28  49 CALM      30.17F
RICHMOND       CLOUDY    50  29  44 S3        30.20R
RALEIGH        CLOUDY    51  29  42 SW5       30.21S

$$

ANZ530>537-172100-
MARINE OBSERVATIONS

STATION/POSITION TIME  TEMP    WIND        PRES
                       AIR SEA DIR/SP/G
                 (UTC) (F)     (DEG/KT/KT) (MB)
THOMAS PT LIGHT  2000   44 43  170/  4/  4   N/A
BALT KEY BRIDGE  1948   40      90/  5/  5 1022.7F
COVE POINT       1948   43     170/  7/  8 1023.0F
LEWISETTA        1948   43 41  140/  3/  4 1022.3F
SOLOMONS ISLAND  1948   44 45  130/  7/  8 1022.2F
PINEY POINT      1948          110/  4/  5   N/A

$$





USA.gov is the U.S. government's official web portal to all federal, state and local government web resources and services.